User: anonymous   Login
Location: Caltech
(34.1382°N, 118.1253°W)
Time: 07:51:16
(UTC-08:00)
Language:

CZ-2C R/B - Orbit

View from above orbital plane
View from above orbital plane
View from above satellite
View from above satellite

Ground track
Ground track

The orbit data is extracted from the following two-line orbital elements,

1 28480U 04046B   17058.19249830  .00000026  00000-0  25200-4 0  9994
2 28480  98.1922 161.4989 0142025 188.7054 230.2801 14.25627704638562
Epoch (UTC): 27 February 2017 04:37:11
Eccentricity: 0.0142025
inclination: 98.1922°
perigee height: 704 km
apogee height: 908 km
right ascension of ascending node: 161.4989°
argument of perigee: 188.7054°
revolutions per day: 14.25627704
mean anomaly at epoch: 230.2801°
orbit number at epoch: 63856

The dashed part of the orbit path shows where the satellite is in the earth's shadow,  

DLR